Hourly Weather Roundup
Issued by NWS Central Illinois

Home | Current Version | Previous Version | Text Only | Print | Product List | Glossary On
Versions: 1 2 3 4 5 6 7 8 9 10 11 12 13 14 15 16 17 18 19 20 21 22 23 24 25 26 27 28 29 30 31 32 33 34 35 36 37 38 39 40 41 42 43 44 45 46 47 48 49 50
000
NZUS43 KILX 080810
HWRILX

AREA WEATHER ROUNDUP
NATIONAL WEATHER SERVICE, LINCOLN IL
200 AM CST THU DEC 08 2016


CITY           SKY/WX    TMP DP  RH WIND       PRES   REMARKS
BLOOMINGTON    CLEAR     20  13  74 W16G24    30.26R WCI   6
CHAMPAIGN      CLEAR     22  14  71 W17       30.27R WCI   8
DANVILLE       CLOUDY    23  15  71 W18       30.23R WCI   8
DECATUR        CLEAR     22  12  65 W13G21    30.30R WCI  10
EFFINGHAM      CLEAR     26  19  75 W13       30.34R WCI  15
FLORA          CLOUDY    30  20  67 NW12      30.33R WCI  20
GALESBURG      CLEAR     19  12  75 W18G25    30.29R WCI   3
JACKSONVILLE   CLEAR     20  13  73 W14       30.35R WCI   7
LACON          CLEAR     20  13  73 W14G20    30.26S WCI   7
LAWRENCEVILLE  CLOUDY    30  19  63 NW20G26   30.30R WCI  17
LITCHFIELD     PTCLDY    23  15  71 W15       30.35R WCI  10
$$


CITY           SKY/WX    TMP DP  RH WIND       PRES   REMARKS
LINCOLN        CLEAR     23  14  70 W9        30.30S WCI  13
MACOMB         CLEAR     20  13  74 W14       30.34R WCI   6
MATTOON        MOCLDY    23  13  65 NW21G31   30.29R WCI   8
MT CARMEL AP   CLOUDY    30  20  66 NW15G21   30.30S WCI  19
OLNEY-NOBLE AP CLOUDY    28  21  74 NW18G24   30.32R WCI  16
PARIS          PTCLDY    24  17  77 W16       30.29R WCI  10
PEORIA         CLEAR     20  11  68 W15G22    30.30R WCI   6
PONTIAC        PTCLDY    22  17  79 W17G24    30.25R WCI   8
RANTOUL        CLEAR     24  17  75 W13       30.25R WCI  12
SPRINGFIELD    CLEAR     23  14  68 W14       30.33R WCI  11
TAYLORVILLE    CLEAR     22  13  69 W8        30.34R WCI  13
$$

...REGIONAL REPORTS...


CITY           SKY/WX    TMP DP  RH WIND       PRES   REMARKS
CHICAGO O`HARE FLURRIES  23  14  68 W21G32    30.14S WCI   8
KANKAKEE       CLOUDY    24  15  69 W18G24    30.22R WCI  10
MOLINE         CLOUDY    20  10  65 W20G32    30.27R WCI   4
MOUNT STERLING CLEAR     19  12  72 W12G18    30.34R WCI   7
MOUNT VERNON   NOT AVBL
PITTSFIELD     CLEAR     22  12  66 W12G18    30.37R WCI  10
QUINCY         CLEAR     20  11  68 W15G23    30.36R WCI   6
ROCKFORD       FLURRIES  22  11  62 W18G31    30.18R WCI   7
$$


CITY           SKY/WX    TMP DP  RH WIND       PRES   REMARKS
BURLINGTON     CLEAR     19  11  70 W9        30.32S WCI   8
CEDAR RAPIDS   PTCLDY    15   9  76 NW26G36   30.28R WCI  -4
DES MOINES     FLURRIES  17   8  67 NW23G31   30.37R WCI  -1
KIRKSVILLE     CLEAR     17   9  70 W9        30.39R WCI   6
OTTUMWA        MOCLDY    17   7  64 NW14G29   30.33F WCI   3
ST LOUIS       CLEAR     25  11  55 W13       30.39R WCI  14
$$


CITY           SKY/WX    TMP DP  RH WIND       PRES   REMARKS
TERRE HAUTE    CLOUDY    27  15  61 NW17G28   30.28R WCI  14
EVANSVILLE     CLOUDY    32  20  61 NW14      30.31R WCI  22
INDIANAPOLIS   CLOUDY    26  18  71 W16       30.21R WCI  14
LAFAYETTE      CLOUDY    23  15  71 W17G24    30.23R WCI   9
MADISON        MOCLDY    19   9  65 MISG      30.11R
MILWAUKEE      FLURRIES  24  13  62 W9        30.09R WCI  14
$$





USA.gov is the U.S. government's official web portal to all federal, state and local government web resources and services.